Weather reports worldwide

Advertisment
Rimini, Italy (16149): temperature & dewpoint: 15.06.2018 23:00:00 - 21.06.2018 23:00:00 (CEST)Rimini, Italy (16149): wind speed: 15.06.2018 23:00:00 - 21.06.2018 23:00:00 (CEST)Rimini, Italy (16149): wind direction: 15.06.2018 23:00:00 - 21.06.2018 23:00:00 (CEST)Rimini, Italy (16149): reduced air pressure: 15.06.2018 23:00:00 - 21.06.2018 23:00:00 (CEST)Rimini, Italy (16149): visibility: 15.06.2018 23:00:00 - 21.06.2018 23:00:00 (CEST)
Date & Time tt [°C] td [°C] ff [km/h] ff [kn] dd ppp [hPa] vv [km]
21.06.2018 23:00:00 26,0 22,1 0 0 N 1012,2 10
21.06.2018 22:00:00 27,0 22,0 4 2 SE - 10
21.06.2018 21:00:00 28,0 22,0 4 2 SE - 10
21.06.2018 20:00:00 28,4 21,9 11 6 ESE 1011,8 10
21.06.2018 19:00:00 29,0 23,0 15 8 E - 10
21.06.2018 18:00:00 29,0 22,0 18 10 E - 10
21.06.2018 17:00:00 28,4 21,9 16 9 E 1013,2 10
21.06.2018 16:00:00 29,0 22,0 21 11 E - 10
21.06.2018 15:00:00 29,0 21,0 18 10 E - 10
21.06.2018 14:00:00 28,8 21,1 16 9 ENE 1015,8 10
21.06.2018 13:00:00 29,0 21,0 13 7 ENE - 10
21.06.2018 12:00:00 28,0 21,0 11 6 NNE - 10
21.06.2018 11:00:00 27,8 20,6 11 6 NE 1016,8 10
21.06.2018 10:00:00 28,0 21,0 9 5 NE - 10
21.06.2018 09:00:00 27,0 20,0 5 3 ENE - 10
21.06.2018 08:00:00 21,0 18,4 0 0 N 1016,9 10
21.06.2018 07:00:00 19,0 18,0 0 0 N - 10
21.06.2018 06:00:00 18,0 18,0 2 1 S - 10
21.06.2018 05:00:00 18,3 18,3 0 0 N 1016,9 10
21.06.2018 04:00:00 19,0 19,0 0 0 N - 10
21.06.2018 03:00:00 19,0 19,0 2 1 SSW - 10
21.06.2018 02:00:00 20,0 19,5 0 0 N 1017,9 10
21.06.2018 01:00:00 20,0 20,0 0 0 N - 10
21.06.2018 00:00:00 21,0 19,0 4 2 S - 10
20.06.2018 23:00:00 23,0 20,0 5 3 SSW 1018,5 10
20.06.2018 22:00:00 24,0 21,0 4 2 S - 10
20.06.2018 21:00:00 26,0 21,0 0 0 N - 10
20.06.2018 20:00:00 28,0 20,8 8 4 E 1018,3 10
20.06.2018 19:00:00 28,0 21,0 8 4 E - 10
20.06.2018 18:00:00 28,0 21,0 9 5 ENE - 10
20.06.2018 17:00:00 28,6 20,6 13 7 NE 1018,7 10
20.06.2018 16:00:00 29,0 22,0 11 6 NE - 10
20.06.2018 15:00:00 29,0 21,0 15 8 NE - 10
20.06.2018 14:00:00 28,6 21,1 13 7 NE 1020,4 10
20.06.2018 13:00:00 29,0 21,0 8 4 N - 10
20.06.2018 12:00:00 28,0 22,0 11 6 N - 10
20.06.2018 11:00:00 27,8 21,6 11 6 N 1019,8 10
20.06.2018 10:00:00 28,0 22,0 8 4 WNW - 10
20.06.2018 09:00:00 27,0 20,0 13 7 WNW - 10
20.06.2018 08:00:00 21,4 18,6 16 9 W 1019,7 10
20.06.2018 07:00:00 21,0 18,0 0 0 N - 10
20.06.2018 06:00:00 19,0 17,0 0 0 N - 10
20.06.2018 05:00:00 18,2 16,5 0 0 N 1019,5 10
20.06.2018 04:00:00 19,0 17,0 0 0 N - 10
20.06.2018 03:00:00 19,0 17,0 0 0 N - 10
20.06.2018 02:00:00 18,6 16,9 5 3 S 1019,5 10
20.06.2018 01:00:00 20,0 17,0 4 2 SSW - 10
20.06.2018 00:00:00 20,0 18,0 5 3 SSW - 10
19.06.2018 23:00:00 22,4 18,0 2 1 SSW 1019,2 10
19.06.2018 22:00:00 22,0 18,0 9 5 S - 10
19.06.2018 21:00:00 26,0 16,0 2 1 W - 10
19.06.2018 20:00:00 28,0 15,0 8 4 N 1018,3 10
19.06.2018 19:00:00 28,0 15,0 9 5 N - 10
19.06.2018 18:00:00 29,0 16,0 9 5 NNE - 10
19.06.2018 17:00:00 29,0 15,9 9 5 NE 1018,6 10
19.06.2018 16:00:00 29,0 17,0 11 6 NE - 10
19.06.2018 15:00:00 29,0 17,0 15 8 NNE - 10
19.06.2018 14:00:00 29,0 15,2 15 8 NE 1019,8 10
19.06.2018 13:00:00 29,0 16,0 15 8 NNE - 10
19.06.2018 12:00:00 29,0 17,0 11 6 NNE - 10
19.06.2018 11:00:00 27,7 20,5 15 8 N 1019,8 10
19.06.2018 10:00:00 27,0 19,0 5 3 NNE - 10
19.06.2018 09:00:00 27,0 20,0 8 4 NNW - 10
19.06.2018 08:00:00 23,8 19,3 9 5 W 1018,4 10
19.06.2018 07:00:00 21,0 20,0 0 0 N - 10
19.06.2018 06:00:00 19,0 18,0 2 1 WSW - 10
19.06.2018 05:00:00 19,4 18,4 4 2 SSW 1017,4 10
19.06.2018 04:00:00 20,0 19,0 5 3 SW - 10
19.06.2018 03:00:00 20,0 19,0 2 1 S - 10
19.06.2018 02:00:00 20,0 18,8 4 2 S 1017,4 10
19.06.2018 01:00:00 21,0 19,0 2 1 SSW - 10
19.06.2018 00:00:00 21,0 19,0 4 2 SSW - 10
18.06.2018 23:00:00 22,2 19,2 2 1 SSW 1016,4 10
18.06.2018 22:00:00 24,0 20,0 8 4 S - 10
18.06.2018 21:00:00 26,0 21,0 2 1 WSW - 10
18.06.2018 20:00:00 27,4 21,0 8 4 NNW 1015,5 10
18.06.2018 19:00:00 27,0 21,0 11 6 N - 10
18.06.2018 18:00:00 28,0 22,0 15 8 N - 10
18.06.2018 17:00:00 28,8 23,7 9 5 N 1015,6 10
18.06.2018 16:00:00 29,0 22,0 13 7 N - 10
18.06.2018 15:00:00 29,0 22,0 18 10 N - 10
18.06.2018 14:00:00 28,6 22,4 21 11 N 1016,1 10
18.06.2018 13:00:00 28,0 22,0 24 13 NNW - 10
18.06.2018 12:00:00 27,0 22,0 28 15 NNW - 10
18.06.2018 11:00:00 26,8 23,7 29 16 NNW 1015,6 10
18.06.2018 10:00:00 26,0 22,0 28 15 NW - 10
18.06.2018 09:00:00 25,0 19,0 16 9 WNW - 10
18.06.2018 08:00:00 20,8 17,4 16 9 W 1014,3 10
18.06.2018 07:00:00 19,0 17,0 0 0 N - 10
18.06.2018 06:00:00 19,0 15,0 0 0 N - 10
18.06.2018 05:00:00 19,2 15,3 0 0 N 1013,4 10
18.06.2018 04:00:00 20,0 16,0 5 3 WSW - 10
18.06.2018 03:00:00 20,0 16,0 5 3 WSW - 10
18.06.2018 02:00:00 19,4 17,0 2 1 SW 1013,8 10
18.06.2018 01:00:00 20,0 18,0 5 3 WSW - 10
18.06.2018 00:00:00 20,0 18,0 4 2 SW - 10
17.06.2018 23:00:00 21,2 19,1 8 4 SSW 1013,8 10
17.06.2018 22:00:00 24,0 22,0 0 0 N - 10
17.06.2018 21:00:00 25,0 22,0 0 0 N - 10
17.06.2018 20:00:00 27,0 21,1 4 2 NE 1012,5 10
17.06.2018 19:00:00 27,0 22,0 4 2 NNE - 10
17.06.2018 18:00:00 27,0 22,0 9 5 NNE - 10
17.06.2018 17:00:00 27,8 19,9 9 5 N 1013,4 10
17.06.2018 16:00:00 28,0 19,0 9 5 N - 10
17.06.2018 15:00:00 28,0 21,0 11 6 N - 10
17.06.2018 14:00:00 27,8 20,6 15 8 N 1013,5 10
17.06.2018 13:00:00 28,0 20,0 15 8 N - 10
17.06.2018 12:00:00 27,0 19,0 15 8 N - 10
17.06.2018 11:00:00 26,4 18,5 13 7 NNW 1013,3 10
17.06.2018 10:00:00 26,0 18,0 16 9 W - 10
17.06.2018 09:00:00 25,0 17,0 18 10 W - 10
17.06.2018 08:00:00 21,8 18,2 15 8 W 1012,4 10
17.06.2018 07:00:00 19,0 17,0 5 3 WSW - 10
17.06.2018 06:00:00 19,0 16,0 4 2 WSW - 10
17.06.2018 05:00:00 19,0 16,0 5 3 SW 1012,4 10
17.06.2018 04:00:00 19,0 16,0 5 3 SW - 10
17.06.2018 03:00:00 19,0 17,0 5 3 WSW - 10
17.06.2018 02:00:00 18,8 16,8 5 3 SW 1012,4 10
17.06.2018 01:00:00 19,0 17,0 2 1 WSW - 10
17.06.2018 00:00:00 19,0 17,0 4 2 WSW - 10
16.06.2018 23:00:00 21,0 18,2 5 3 SSW 1012,0 10
16.06.2018 22:00:00 23,0 19,0 0 0 N - 10
16.06.2018 21:00:00 25,0 18,0 0 0 N - 10
16.06.2018 20:00:00 26,2 15,9 4 2 NW 1011,4 10
16.06.2018 19:00:00 26,0 16,0 9 5 N - 10
16.06.2018 18:00:00 26,0 16,0 11 6 N - 10
16.06.2018 17:00:00 26,4 16,1 13 7 NNW 1012,4 10
16.06.2018 16:00:00 26,0 16,0 13 7 N - 10
16.06.2018 15:00:00 26,0 16,0 16 9 N - 10
16.06.2018 14:00:00 26,0 16,6 16 9 N 1012,6 10
16.06.2018 13:00:00 26,0 18,0 16 9 NNW - 10
16.06.2018 12:00:00 26,0 18,0 13 7 NNW - 10
16.06.2018 11:00:00 24,8 17,5 16 9 NNW 1012,5 10
16.06.2018 10:00:00 24,0 17,0 16 9 WNW - 10
16.06.2018 09:00:00 24,0 17,0 16 9 WNW - 10
16.06.2018 08:00:00 20,0 16,4 16 9 W 1012,5 10
16.06.2018 07:00:00 18,0 16,0 0 0 N - 10
16.06.2018 06:00:00 17,0 15,0 0 0 N - 10
16.06.2018 05:00:00 17,0 15,7 4 2 WSW 1012,5 10
16.06.2018 04:00:00 18,0 17,0 0 0 N - 10
16.06.2018 03:00:00 18,0 17,0 2 1 WSW - 10
16.06.2018 02:00:00 17,4 17,1 0 0 N 1012,5 10
16.06.2018 01:00:00 18,0 16,0 0 0 N - 10
16.06.2018 00:00:00 19,0 17,0 4 2 SSW - 10
15.06.2018 23:00:00 20,0 17,4 5 3 S 1012,3 10

tt = temperature
td = dewpoint
ff = wind speed
dd = wind direction
ppp = reduced air pressure
vv = visibility

Next stations